Zurück zum Katalog

STARLINK-34402

AktivKommunikationVLEO
NORAD 64446·PAYLOAD·🇺🇸 United States

Gestartet Jun 18, 2025 von Cape Canaveral Space Force Station

Loading…

Nächste Überflüge (nächste 24 Stunden)

TLE

AktuellSource: CelesTrak SupGP

Epoche: Sep 14, 2026, 21:41 UTC

1 64446C 25130J   26257.90395833  .00041593  00000+0  12292-2 0  2573
2 64446  53.1558 287.5664 0001176  98.0358 208.3299 15.34361545    10

Verfolge STARLINK-34402 in Echtzeit mit AllMySat

Download on the App Store